[Iaude] MPEC W56: 2004 JP1 [a=1.13,e=0.22,i=20.9,H=22.7]

mpec at si.edu mpec at si.edu
Tue Nov 22 23:34:16 EST 2016


M.P.E.C. 2016-W56                                Issued 2016 Nov. 23, 04:27 UT
 
     The Minor Planet Electronic Circulars contain information on unusual
         minor planets and routine data on comets.  They are published
    on behalf of Division F of the International Astronomical Union by the
          Minor Planet Center, Smithsonian Astrophysical Observatory,
                          Cambridge, MA 02138, U.S.A.

             Prepared using the Tamkin Foundation Computer Network

                              MPC at CFA.HARVARD.EDU
            URL http://www.minorplanetcenter.net/    ISSN 1523-6714


                                   2004 JP1
 
                           Revision to MPEC 2004-J50
 
Additional Observations:
     K04J01P  C2016 11 22.22341 01 50 31.55 +08 17 04.2          19.8 RoEW056926
     K04J01P  C2016 11 22.22654 01 50 30.98 +08 17 23.9          19.7 RoEW056926
     K04J01P  C2016 11 22.22966 01 50 30.38 +08 17 43.3          19.9 RoEW056926
     K04J01P  C2016 11 23.14392 01 48 02.49 +09 50 30.3          20.1 RoEW056926
     K04J01P  C2016 11 23.14741 01 48 01.88 +09 50 51.3          20.1 RoEW056926
     K04J01P  C2016 11 23.15088 01 48 01.28 +09 51 11.7          20.0 RoEW056926
 
Observer details:
926 Tenagra II Observatory.  Observers M. Schwartz, P. R. Holvorcem.  Measurer
    M. Schwartz.  0.81-m f/7 Ritchey-Chretien + CCD.
 
First and last observations above in comparison with prediction:
Residuals in seconds of arc (or two decimals in degrees), reference and Delta-T
161122 926 0.76+ 0.66+    161123 926 0.73+ 0.65+    MPO 66372   -0.20 day
 
Orbital elements:
2004 JP1                                                 Earth MOID = 0.0060 AU
Epoch 2017 Feb. 16.0 TT = JDT 2457800.5                 MPC
M 149.64335              (2000.0)            P               Q
n   0.81590973     Peri.  253.95507     +0.59741240     +0.74441335
a   1.1342479      Node    56.61271     -0.52839902     +0.64515715
e   0.2189699      Incl.   20.92752     -0.60323537     +0.17210755
P   1.21           H   22.7           G   0.15           U   2
Residuals in seconds of arc
040511 704  0.2-  0.2+    040515 170  0.5-  0.3-    040517 J95  0.2-  0.3+
040511 704  0.1-  0.2+    040515 170  0.3-  0.2-    040517 938  0.3-  0.0
040511 704  0.1+  0.0     040515 552  0.5+  0.1-    040517 938  1.2-  0.7-
040511 704  0.3+  0.3+    040515 552  0.3+  0.4+    040517 938  0.1-  0.5+
040511 704  0.1+  0.2+    040515 552  0.2+  0.5-    040517 938 (1.5+  0.4+)
040511 246  0.1+  0.6+    040515 552  0.9+  0.2-    040517 938  0.2-  0.6-
040511 246  0.6+  0.6+    040515 552  0.7+  0.4-    040517 938  0.4-  0.1+
040511 246  0.6+  0.7+    040515 552  0.5+  0.0     040517 938  0.5-  0.3-
040511 246  0.4+  0.7+    040515 552  0.3-  0.6-    040517 938  1.0+  0.1+
040511 246  0.3+  0.6+    040515 552  0.2-  0.1-    040517 938  0.6+  0.1-
040511 246  0.3+  0.5+    040515 552  0.6+  0.1+    040517 938  1.1-  0.9-
040512 673  0.1-  0.2+    040515 552  0.4+  0.2-    040517 938  0.4-  0.1-
040512 673  0.1-  0.4+    040515 552  0.1-  0.3-    040517 938 (1.3-  1.6-)
040512 673  0.0   0.2+    040515 552  0.5+  0.5-    040517 J95  0.1-  0.1+
040512 673  0.3-  0.2+    040515 552  0.6+  0.0     040517 938  0.8+  0.8+
040512 673  0.3-  0.6+    040516 J95  0.1+  0.0     040517 938  0.4-  0.3+
040512 673  0.2-  0.5+    040516 J95  0.1-  0.1+    040517 938  0.8+  0.6-
040512 H06  0.0   0.0     040516 J95  0.3-  0.2-    040517 938  0.0   0.1+
040512 H06  0.1-  0.1-    040516 926  0.2+  0.7+    040517 938  0.2-  0.6-
040512 H06  0.1-  0.1+    040516 926  0.0   0.3+    040517 938  1.0+  1.3+
040512 704  0.1+  0.3+    040516 926  0.5-  0.1-    040517 J95  0.2+  0.4+
040512 850  1.1-  0.2-    040516 A16 (2.5-  2.6-)   040517 938  1.4-  0.9-
040512 704  0.2-  0.0     040516 A16 (1.9-  2.1-)   040517 938  0.9+  0.4+
040512 704  0.3-  0.1+    040516 A16 (2.0-  2.3-)   040517 938  1.2+  1.4+
040512 850  0.5-  0.1-    040516 A16 (2.4-  2.4-)   040517 938  0.2-  0.9+
040512 704  0.4-  0.1-    040516 A16 (1.6-  1.7-)   040517 938  0.0   0.5+
040512 704  0.1+  0.3+    040516 104  0.3-  0.7+    040517 215 (3.1-  2.7-)
040512 850  0.2-  0.4-    040516 104 (1.8-  1.7-)   040517 215 (2.3-  2.0-)
040512 704  0.0   0.1-    040516 J95  0.1-  0.1-    040517 215 (2.9-  2.6-)
040512 850  0.5-  0.3-    040516 104  1.0+  0.3+    040517 215 (1.9-  1.7-)
040512 704  0.2-  0.0     040516 J95  0.1+  0.1+    040517 215 (2.7-  2.4-)
040512 704  0.1-  0.1-    040516 104  0.3+  0.2-    040517 215 (3.1-  2.7-)
040512 704  0.2-  0.3+    040516 J95  0.1+  0.2+    040517 215  0.9-  0.6-
040512 G70  0.1-  0.2+    040516 J95  0.1-  0.0     040517 215  1.0-  1.0-
040512 G70  0.0   0.6+    040517 J95  0.0   0.0     040517 215  0.6-  0.2-
040512 854  0.1-  0.0     040517 J95  0.2+  0.3+    040517 215  1.3-  1.1-
040512 854  0.1+  0.4-    040517 J95  0.1-  0.0     040517 215 (2.0-  1.8-)
040512 G70  0.2-  0.4+    040517 926  1.0-  0.7-    040517 215  1.0-  1.0-
040512 854  0.1-  0.1-    040517 926  0.5-  0.6-    040517 215 (1.9-  2.0-)
040512 938  0.0   0.2-    040517 926  0.8+  0.9+    040517 215  1.0-  0.7-
040512 938  1.0+  0.6+    040517 084  0.8-  0.4+    040517 215  1.4-  1.2-
040512 938  0.9-  0.6-    040517 084  1.1+  0.1-    040517 215  0.8-  0.6-
040512 J95  0.1+  0.3-    040517 084 (3.1+  1.8+)   040517 215  1.1-  1.2-
040512 J95  0.1-  0.1-    040517 084 (2.1+  1.0+)   040517 215 (2.0-  1.5-)
040512 938  0.7+  0.5-    040517 084  0.5+  0.3-    040517 215  1.1-  0.9-
040512 J95  0.1-  0.1+    040517 938  1.0+  0.0     040517 215 (1.6-  1.5-)
040512 938  0.3+  0.2+    040517 938  0.5-  0.0     040517 J95  0.5+  0.2+
040512 938  1.0-  1.0+    040517 938  0.1-  0.1-    040517 138  0.3+  0.2+
040512 938  0.9+  0.5-    040517 938  0.8-  1.0-    040517 138  0.5+  0.4+
040512 938  0.8-  0.2+    040517 938  0.7+  0.5+    040517 138  0.7+  1.4+
040512 938  0.3+  0.2-    040517 587 (1.9-  2.2-)   040518 926  1.4+  0.6+
040513 938  0.5+  0.1-    040517 938  0.8+  0.8+    040518 926 (1.7+  0.8+)
040513 938  0.5+  0.0     040517 938  0.4-  0.4-    040518 926 (1.6+  0.6+)
040513 938  0.2-  0.4-    040517 587 (2.4-  1.1-)   040518 428  0.2+  0.2+
040514 108 (3.9-  3.3-)   040517 938  0.1-  0.6-    040518 428  0.2-  0.1-
040514 108 (4.6+  0.1+)   040517 938  0.3+  0.7+    040518 428  0.1-  0.1-
040514 J95  0.2-  0.1-    040517 587 (3.7-  1.5-)   040518 428  0.1-  0.0
040514 J95  0.0   0.1-    040517 938 (1.0+  1.8+)   040518 428  0.0   0.1+
040514 J95  0.0   0.2-    040517 938  0.4+  0.1-    040518 428  0.0   0.1-
040515 G70  0.2+  0.0     040517 938  0.8+  0.9-    040518 428  0.0   0.0
040515 G70  0.1+  0.2+    040517 938  1.5-  1.1-    040518 428  0.0   0.1-
040515 G70  0.0   0.4+    040517 938  0.8-  0.4-    040518 428  0.1-  0.1-
040515 734  0.8-  0.4-    040517 938  0.1+  0.4+    040518 428  0.2-  0.2-
040515 734  0.1-  0.1-    040517 938  0.3+  0.9-    040518 428  0.0   0.1+
040515 734  0.5-  0.4-    040517 938  0.2-  0.8-    040518 428  0.1+  0.1+
040515 108 (2.5+  2.3+)   040517 938  1.3+  1.4+    161122 926  0.3-  0.1+
040515 108 (1.8-  0.5-)   040517 938  0.1-  0.2-    161122 926  0.0   0.2+
040515 108  0.5+  0.5+    040517 938  0.4+  0.9+    161122 926  0.3-  0.1+
040515 108 (1.8+  1.4+)   040517 938  0.7+  0.1+    161123 926  0.2-  0.3+
040515 108  1.3-  1.1-    040517 938  1.2+  0.1+    161123 926  0.3-  0.5+
040515 108 (2.3+  1.6+)   040517 J95  0.0   0.1+    161123 926  0.2-  0.3+
040515 108  1.2+  0.3+    040517 938 (2.4+  0.3+)
040515 170  0.2-  0.2-    040517 938  0.8+  0.6+

Ephemeris:
2004 JP1                 a,e,i = 1.13, 0.22, 21                  q = 0.8859
Date    TT    R. A. (2000) Decl.     Delta      r     Elong.  Phase     V
2016 10 24    05 15 59.5 -55 52 23   0.1689  1.0387   100.5    70.3    21.4
...
2016 11 08    02 57 36.9 -26 01 06   0.1337  1.0929   137.4    37.8    20.0
...
2016 11 16    02 12 39.7 -04 35 16   0.1498  1.1217   150.5    25.7    20.0
...
2016 11 22    01 51 10.0 +07 53 52   0.1775  1.1429   148.6    26.8    20.4
2016 11 23    01 48 24.3 +09 36 27   0.1832  1.1464   147.7    27.4    20.5
2016 11 24    01 45 51.1 +11 13 09   0.1890  1.1499   146.7    28.1    20.6
...
2016 11 30    01 34 24.3 +19 05 47   0.2283  1.1706   140.1    32.7    21.2
...
2016 12 08    01 27 26.1 +26 07 18   0.2885  1.1971   131.9    37.8    21.9
...
2016 12 23    01 31 16.6 +33 44 46   0.4144  1.2433   119.9    43.3    22.9

A. U. Tomatic                (C) Copyright 2016 MPC           M.P.E.C. 2016-W56




More information about the Iaude mailing list